Location: Newark
(50.4348°N, 30.5552°E)
Time: 16:05:18
(UTC+00:00)

Altair - Pass Details

Date: 22 January 2020
Orbit: 1502 x 1682 km, 47.2° (Epoch: 25 February)

Event Time Altitude Azimuth Distance (km) Brightness Sun altitude
Rises 13:16:00 0° 287° (WNW) 4,937 10.5 8.7°
Reaches altitude 10° 13:19:24 10° 281° (WNW) 3,938 10.2 8.3°
Maximum altitude 13:28:37 43° 215° (SW) 2,200 9.4 7.3°
Drops below altitude 10° 13:37:35 10° 149° (SSE) 3,823 9.8 6.2°
Sets 13:40:50 0° 143° (SE) 4,781 10.1 5.8°
